Juneau, AK

5:07 AM AKDT on March 28, 2017 (GMT -0800)
Juneau International

Weather History for PAJN - May, 2013

Change the Weather History Date:

Thursday, May 30, 2013

  Actual Average Record
Temperature  
Mean Temperature 55 °F 52 °F  
Max Temperature 59 °F 60 °F 77 °F (2015)
Min Temperature 50 °F 44 °F 30 °F (1955)
Degree Days  
Heating Degree Days 10 13  
Month to date heating degree days 503 496  
Since 1 July heating degree days 8520 8024  
Cooling Degree Days 0 0  
Month to date cooling degree days 0 0  
Year to date cooling degree days 0 0  
Growing Degree Days 4 (Base 50)    
Moisture  
Dew Point 49 °F    
Average Humidity 80    
Maximum Humidity 93    
Minimum Humidity 67    
Precipitation  
Precipitation 0.05 in 0.11 in 0.71 in (1999)
Month to date precipitation 4.23 3.29  
Year to date precipitation 27.27 19.49  
Sea Level Pressure  
Sea Level Pressure 29.97 in    
Wind  
Wind Speed 4 mph (WSW)    
Max Wind Speed 12 mph    
Max Gust Speed 14 mph    
Visibility 10 miles    
Events Rain    
T = Trace of Precipitation, MM = Missing Value Source: NWS Daily Summary

Daily Weather History Graph

Daily Weather History Graph

Search for Another Location

Airport or City:

Trip Planner

Search our weather history database for the weather conditions in past years. The results will help you decide how hot, cold, wet, or windy it might be!

Date:

Astronomy

May. 30, 2013 Rise Set
Actual Time 4:04 AM AKDT 9:48 PM AKDT
Civil Twilight 2:56 AM AKDT 10:57 PM AKDT
Nautical Twilight 1:28 AM AKDT 12:23 AM AKDT
Astronomical Twilight Sun does not rise Sun does not rise
Moon 12:57 AM AKDT (5/30) 11:23 AM AKDT (5/30)
Length of Visible Light 20h 00m
Length of Day
17h 43m
Waning Gibbous, 61% of the Moon is Illuminated
May 30
Waning Gibbous
May 31
Last Quarter
Jun 8
New
Jun 16
First Quarter
Jun 23
Full

Hourly Weather History & Observations

Time (AKDT) Temp. Dew Point Humidity Pressure Visibility Wind Dir Wind Speed Gust Speed Precip Events Conditions
12:53 AM 51.1 °F 48.9 °F 92% 29.89 in 10.0 mi ENE 4.6 mph - 0.01 in Rain Light Rain
1:53 AM 50.0 °F 48.9 °F 96% 29.90 in 10.0 mi East 3.5 mph - 0.01 in   Overcast
2:53 AM 50.0 °F 48.9 °F 96% 29.91 in 10.0 mi East 5.8 mph - N/A   Overcast
3:53 AM 51.1 °F 48.9 °F 92% 29.91 in 10.0 mi Calm Calm - N/A   Overcast
4:53 AM 50.0 °F 48.9 °F 96% 29.92 in 10.0 mi Calm Calm - N/A   Overcast
5:11 AM 50.0 °F 48.9 °F 96% 29.93 in 10.0 mi Calm Calm - 0.00 in Rain Light Rain
5:53 AM 51.1 °F 48.9 °F 92% 29.93 in 10.0 mi Calm Calm - 0.00 in   Overcast
6:53 AM 51.1 °F 48.9 °F 92% 29.94 in 10.0 mi West 5.8 mph - N/A   Overcast
7:53 AM 52.0 °F 48.0 °F 86% 29.95 in 10.0 mi WNW 5.8 mph - N/A   Overcast
8:53 AM 53.1 °F 50.0 °F 89% 29.96 in 10.0 mi WSW 8.1 mph - N/A   Overcast
9:53 AM 53.1 °F 48.9 °F 86% 29.96 in 10.0 mi WSW 8.1 mph - N/A   Overcast
10:42 AM 54.0 °F 48.0 °F 80% 29.97 in 10.0 mi West 9.2 mph - N/A   Overcast
10:53 AM 55.0 °F 48.0 °F 77% 29.98 in 10.0 mi West 9.2 mph - N/A   Overcast
11:53 AM 55.0 °F 48.9 °F 80% 29.98 in 10.0 mi WSW 10.4 mph - N/A   Overcast
12:33 PM 55.9 °F 48.9 °F 77% 29.98 in 10.0 mi WSW 9.2 mph - N/A   Overcast
12:53 PM 55.9 °F 50.0 °F 80% 29.98 in 10.0 mi WSW 6.9 mph - N/A   Overcast
1:53 PM 57.9 °F 48.9 °F 72% 29.99 in 10.0 mi SW 10.4 mph - N/A   Overcast
2:18 PM 57.9 °F 48.9 °F 72% 29.99 in 10.0 mi WSW 9.2 mph - N/A   Overcast
2:53 PM 59.0 °F 48.9 °F 69% 29.99 in 10.0 mi West 5.8 mph - N/A   Overcast
3:53 PM 59.0 °F 48.9 °F 69% 29.99 in 10.0 mi West 3.5 mph - N/A   Overcast
4:53 PM 57.9 °F 48.0 °F 70% 29.99 in 10.0 mi WSW 5.8 mph - N/A   Overcast
5:53 PM 59.0 °F 48.9 °F 69% 29.99 in 10.0 mi Calm Calm - N/A   Overcast
6:53 PM 57.9 °F 48.0 °F 70% 29.99 in 10.0 mi Calm Calm - N/A   Overcast
7:53 PM 57.0 °F 48.0 °F 72% 29.99 in 10.0 mi Calm Calm - N/A   Overcast
8:53 PM 57.0 °F 48.0 °F 72% 29.99 in 10.0 mi Calm Calm - N/A   Overcast
9:53 PM 54.0 °F 46.9 °F 77% 30.01 in 10.0 mi West 3.5 mph - 0.00 in Rain Light Rain
10:53 PM 53.1 °F 48.0 °F 83% 30.03 in 10.0 mi Calm Calm - 0.00 in Rain Light Rain
11:53 PM 53.1 °F 48.9 °F 86% 30.04 in 10.0 mi Calm Calm - 0.02 in Rain Light Rain